CHINASAT 1C (ZX 1C)

Last updated on Nov. 15, 2019, 4:20 a.m. UTC

1 41103U 15073A   19318.50013395 -.00000137  00000-0  00000+0 0  9994
2 41103   1.1089  94.4038 0002114 156.2503  64.2637  1.00272411 14537
UTC
Height (km)
Latitude
Longitude
Inclination
Orbital Period
UTC large
Height (km)
Speed (km/s)
/
Latitude / Longitude
Inclination (degrees)
Orbital Period (minutes)
Azimuth
Elevation
Range (km)
Doppler Factor
iOS Compass Heading
iOS Angle

Next 30 passes for location: Hong Kong

Rise time Rise Azimuth (degrees) Set time Set Azimuth (degrees) Duration Max altitude (degrees)

No matching passes for this satellites